WA6MEM Weather Reports


time (UTC)temp
F
wind
direction
speed
knots
gust
knots
rain 1hr
in
rain 24hr
in
rain mn
in
humidity
%
barometer
mb
20220124103134 56 43 0.0 0.0 0.00 0.00 0.00 34 1017.4
20220124102552 56 30 0.0 0.0 0.00 0.00 0.00 34 1017.4
20220124102046 56 32 0.0 0.0 0.00 0.00 0.00 34 1017.4
20220124101632 57 5 0.0 0.0 0.00 0.00 0.00 34 1017.5
20220124101045 57 10 0.0 0.0 0.00 0.00 0.00 33 1017.5
20220124100546 57 18 0.0 0.0 0.00 0.00 0.00 33 1017.5
20220124100110 56 18 0.0 0.0 0.00 0.00 0.00 34 1017.8
20220124095545 57 5 0.0 0.0 0.00 0.00 0.00 33 1017.8
20220124095044 56 342 0.0 0.0 0.00 0.00 0.00 33 1017.8
20220124094612 56 19 0.0 0.0 0.00 0.00 0.00 33 1018.0
20220124094104 57 18 0.0 0.0 0.00 0.00 0.00 33 1018.0
20220124093544 57 17 0.0 0.0 0.00 0.00 0.00 32 1018.0
20220124093140 57 17 0.0 0.0 0.00 0.00 0.00 32 1017.9
20220124092605 57 17 0.0 0.0 0.00 0.00 0.00 32 1017.9
20220124092043 57 11 0.0 0.0 0.00 0.00 0.00 32 1017.9
20220124091547 57 24 0.0 0.0 0.00 0.00 0.00 33 1017.8
20220124091042 58 22 0.0 0.0 0.00 0.00 0.00 32 1017.8
20220124090548 58 360 0.0 0.0 0.00 0.00 0.00 31 1017.8
20220124090125 59 5 0.0 0.0 0.00 0.00 0.00 31 1017.9
20220124085603 58 346 0.0 0.0 0.00 0.00 0.00 31 1017.9
20220124085039 58 5 0.0 0.0 0.00 0.00 0.00 32 1017.9
20220124084601 58 19 0.0 0.0 0.00 0.00 0.00 34 1018.1
20220124084036 57 5 0.0 0.0 0.00 0.00 0.00 37 1018.1
20220124083542 56 360 0.0 0.0 0.00 0.00 0.00 40 1018.1
20220124083047 55 22 0.0 0.0 0.00 0.00 0.00 46 1018.3
20220124082534 55 22 0.0 0.0 0.00 0.00 0.00 46 1018.3
20220124082032 56 22 0.0 0.0 0.00 0.00 0.00 46 1018.3
20220124081556 56 22 0.0 0.0 0.00 0.00 0.00 45 1018.5
20220124081036 56 19 0.0 0.0 0.00 0.00 0.00 44 1018.5
20220124080534 57 22 0.0 0.0 0.00 0.00 0.00 45 1018.5
20220124080042 57 36 0.0 0.0 0.00 0.00 0.00 45 1018.5
20220124075529 57 15 0.0 0.0 0.00 0.00 0.00 44 1018.5
20220124075053 57 19 0.0 0.0 0.00 0.00 0.00 43 1018.5
20220124074613 58 22 0.0 0.0 0.00 0.00 0.00 41 1018.5
20220124074107 58 20 0.0 0.0 0.00 0.00 0.00 39 1018.5
20220124073534 58 22 0.0 0.0 0.00 0.00 0.00 38 1018.5
20220124073040 58 16 0.0 0.0 0.00 0.00 0.00 37 1018.6
20220124072539 58 28 0.0 0.0 0.00 0.00 0.00 38 1018.6
20220124072028 58 38 0.0 0.0 0.00 0.00 0.00 39 1018.6
20220124071551 58 25 0.0 0.0 0.00 0.00 0.00 39 1018.6
20220124071030 58 25 0.0 0.0 0.00 0.00 0.00 38 1018.6
20220124070529 58 5 0.0 0.0 0.00 0.00 0.00 38 1018.6
20220124070057 58 23 0.0 0.0 0.00 0.00 0.00 39 1018.9
20220124065536 58 37 0.0 0.0 0.00 0.00 0.00 39 1018.9
20220124065027 57 13 0.0 0.0 0.00 0.00 0.00 40 1018.9
20220124064604 57 19 0.0 0.0 0.00 0.00 0.00 41 1019.0
20220124064027 57 21 0.0 0.0 0.00 0.00 0.00 41 1019.0
20220124063527 57 23 0.0 0.0 0.00 0.00 0.00 42 1019.0
20220124063044 58 5 0.0 0.0 0.00 0.00 0.00 42 1019.0
20220124062527 58 26 0.0 0.0 0.00 0.00 0.00 41 1019.0
20220124062031 58 20 0.0 0.0 0.00 0.00 0.00 42 1019.0
20220124061527 57 5 0.0 0.0 0.00 0.00 0.00 42 1019.0
20220124061030 57 19 0.0 0.0 0.00 0.00 0.00 43 1019.0
20220124060526 58 37 0.0 0.0 0.00 0.00 0.00 42 1019.0
20220124060110 58 32 0.0 0.0 0.00 0.00 0.00 41 1018.9
20220124055526 58 13 0.0 0.0 0.00 0.00 0.00 43 1018.9
20220124055025 58 5 0.0 0.0 0.00 0.00 0.00 43 1018.9
20220124054605 58 9 0.0 0.0 0.00 0.00 0.00 42 1018.8
20220124054026 58 360 0.0 0.0 0.00 0.00 0.00 42 1018.8
20220124053530 58 5 0.0 0.0 0.00 0.00 0.00 42 1018.8
20220124053040 58 355 0.0 0.0 0.00 0.00 0.00 42 1018.6
20220124052525 58 355 0.0 0.0 0.00 0.00 0.00 42 1018.6
20220124052033 58 360 0.0 0.0 0.00 0.00 0.00 43 1018.6
20220124051525 58 28 0.0 0.0 0.00 0.00 0.00 43 1018.7
20220124051025 58 22 0.0 0.0 0.00 0.00 0.00 43 1018.7
20220124050524 58 40 0.0 0.0 0.00 0.00 0.00 44 1018.7
20220124050036 58 42 0.0 0.0 0.00 0.00 0.00 44 1018.6
20220124045524 58 18 0.0 0.0 0.00 0.00 0.00 44 1018.6
20220124045030 58 19 0.0 0.0 0.00 0.00 0.00 44 1018.6
20220124044544 59 29 0.0 0.0 0.00 0.00 0.00 43 1018.6
20220124044023 59 19 0.0 0.0 0.00 0.00 0.00 42 1018.6
20220124043523 60 346 0.0 0.0 0.00 0.00 0.00 41 1018.6
20220124043025 60 355 0.0 0.0 0.00 0.00 0.00 40 1018.6
20220124042523 60 5 0.0 0.0 0.00 0.00 0.00 39 1018.6
20220124042023 60 360 0.0 0.0 0.00 0.00 0.00 38 1018.6
20220124041523 60 342 0.0 0.0 0.00 0.00 0.00 37 1018.8
20220124041035 60 360 0.0 0.0 0.00 0.00 0.00 38 1018.8
20220124040523 59 36 0.0 0.0 0.00 0.00 0.00 38 1018.8
20220124040032 59 5 0.0 0.0 0.00 0.00 0.00 38 1018.8
20220124035525 59 40 0.0 0.0 0.00 0.00 0.00 38 1018.8
20220124035022 59 309 0.0 0.0 0.00 0.00 0.00 38 1018.8
20220124034534 59 346 0.0 0.0 0.00 0.00 0.00 40 1018.7
20220124034022 59 329 0.0 0.0 0.00 0.00 0.00 41 1018.7
20220124033521 59 344 0.0 0.0 0.00 0.00 0.00 42 1018.7
20220124033035 59 350 0.0 0.0 0.00 0.00 0.00 43 1018.6
20220124032524 60 323 0.0 0.0 0.00 0.00 0.00 41 1018.6
20220124032020 60 334 0.0 0.0 0.00 0.00 0.00 42 1018.6
20220124031531 60 332 0.0 0.0 0.00 0.00 0.00 42 1018.7
20220124031026 60 318 0.0 0.0 0.00 0.00 0.00 42 1018.7
20220124030526 60 320 0.0 0.0 0.00 0.00 0.00 43 1018.7
20220124030127 60 342 0.0 0.0 0.00 0.00 0.00 41 1018.6
20220124025520 60 335 0.0 0.0 0.00 0.00 0.00 40 1018.6
20220124025020 60 297 0.0 0.0 0.00 0.00 0.00 40 1018.6
20220124024523 60 290 0.0 0.0 0.00 0.00 0.00 40 1018.5
20220124024025 60 313 0.0 0.0 0.00 0.00 0.00 40 1018.5
20220124023519 59 306 0.0 0.0 0.00 0.00 0.00 41 1018.5
20220124023019 59 324 0.0 0.0 0.00 0.00 0.00 43 1018.5
20220124022520 59 327 0.0 0.0 0.00 0.00 0.00 44 1018.5
20220124022019 59 321 0.0 0.0 0.00 0.00 0.00 44 1018.5
20220124021519 59 311 0.0 0.0 0.00 0.00 0.00 45 1018.5
20220124021018 59 316 0.0 0.0 0.00 0.00 0.00 43 1018.5
20220124020518 59 310 0.0 0.0 0.00 0.00 0.00 40 1018.5
20220124020051 59 301 0.0 0.0 0.00 0.00 0.00 41 1018.4
20220124015518 60 311 0.0 0.0 0.00 0.00 0.00 39 1018.4
20220124015023 60 280 0.0 0.0 0.00 0.00 0.00 40 1018.4
20220124014522 60 292 0.0 0.0 0.00 0.00 0.00 39 1018.5
20220124014016 60 253 0.0 0.0 0.00 0.00 0.00 37 1018.5
20220124013516 60 320 0.0 0.0 0.00 0.00 0.00 37 1018.5
20220124013016 60 308 0.0 0.0 0.00 0.00 0.00 35 1018.5
20220124012515 60 298 0.0 0.0 0.00 0.00 0.00 35 1018.5
20220124012015 60 259 0.0 0.0 0.00 0.00 0.00 35 1018.5
20220124011542 61 269 0.0 0.0 0.00 0.00 0.00 34 1018.4
20220124011014 61 262 0.0 0.0 0.00 0.00 0.00 35 1018.4
20220124010514 61 273 0.0 0.0 0.00 0.00 0.00 34 1018.4
20220124010017 61 294 0.0 0.0 0.00 0.00 0.00 33 1018.4
20220124005514 61 286 0.0 0.0 0.00 0.00 0.00 32 1018.4
20220124005018 62 303 0.0 0.0 0.00 0.00 0.00 31 1018.4
20220124004523 62 292 0.0 0.0 0.00 0.00 0.00 30 1018.5
20220124004034 62 291 0.0 0.0 0.00 0.00 0.00 29 1018.5
20220124003513 62 296 0.0 0.0 0.00 0.00 0.00 31 1018.5
20220124003016 62 259 0.0 0.0 0.00 0.00 0.00 30 1018.5
20220124002513 62 288 0.0 0.0 0.00 0.00 0.00 30 1018.5
20220124002013 62 277 0.0 0.0 0.00 0.00 0.00 30 1018.5
20220124001528 63 270 0.0 0.0 0.00 0.00 0.00 29 1018.5
20220124001018 63 262 0.0 0.0 0.00 0.00 0.00 28 1018.5
20220124000513 64 246 0.0 0.0 0.00 0.00 0.00 27 1018.5
20220124000038 64 250 0.0 0.0 0.00 0.00 0.00 26 1018.6
20220123235516 64 284 0.0 0.0 0.00 0.00 0.00 26 1018.6
20220123235017 65 280 0.0 0.0 0.00 0.00 0.00 26 1018.6
20220123234621 65 261 0.0 0.0 0.00 0.00 0.00 26 1018.5
20220123234012 65 260 0.0 0.0 0.00 0.00 0.00 26 1018.5
20220123233511 65 293 0.0 0.0 0.00 0.00 0.00 26 1018.5
20220123233012 66 209 0.0 0.0 0.00 0.00 0.00 27 1018.6
20220123232511 66 214 0.0 0.0 0.00 0.00 0.00 25 1018.6
20220123232011 67 239 0.0 0.0 0.00 0.00 0.00 25 1018.6
20220123231527 67 204 0.0 0.0 0.00 0.00 0.00 25 1018.5
20220123231011 67 194 0.0 0.0 0.00 0.00 0.00 26 1018.5
20220123230511 67 255 0.0 0.0 0.00 0.00 0.00 26 1018.5
20220123230011 67 236 0.0 0.0 0.00 0.00 0.00 27 1018.5
20220123225524 67 163 0.0 0.0 0.00 0.00 0.00 27 1018.5
20220123225016 67 185 0.0 0.0 0.00 0.00 0.00 27 1018.5
20220123224514 67 242 0.0 0.0 0.00 0.00 0.00 26 1018.6
20220123224010 67 269 0.0 0.0 0.00 0.00 0.00 26 1018.6
20220123223512 66 227 0.0 0.0 0.00 0.00 0.00 27 1018.6
20220123223019 66 205 0.0 0.0 0.00 0.00 0.00 27 1018.6
20220123222510 66 208 0.0 0.0 0.00 0.00 0.00 29 1018.6
20220123222013 66 190 0.0 0.0 0.00 0.00 0.00 31 1018.6
20220123221522 66 221 0.0 0.0 0.00 0.00 0.00 27 1018.7
20220123221009 66 225 0.0 0.0 0.00 0.00 0.00 28 1018.7
20220123220529 66 216 0.0 0.0 0.00 0.00 0.00 28 1018.7
20220123220009 67 186 0.0 0.0 0.00 0.00 0.00 27 1018.7
20220123215509 67 190 0.0 0.0 0.00 0.00 0.00 28 1018.7
20220123215014 66 190 0.0 0.0 0.00 0.00 0.00 27 1018.7
20220123214527 66 202 0.0 0.0 0.00 0.00 0.00 26 1019.1
20220123214007 66 172 0.0 0.0 0.00 0.00 0.00 29 1019.1
20220123213507 66 144 0.0 0.0 0.00 0.00 0.00 30 1019.1
20220123213007 66 206 0.0 0.0 0.00 0.00 0.00 28 1019.1
20220123212506 67 190 0.0 0.0 0.00 0.00 0.00 27 1019.1
20220123212006 67 212 0.0 0.0 0.00 0.00 0.00 26 1019.1
20220123211528 67 306 0.0 0.0 0.00 0.00 0.00 25 1019.2
20220123211004 67 242 0.0 0.0 0.00 0.00 0.00 24 1019.2
20220123210503 67 280 0.0 0.0 0.00 0.00 0.00 24 1019.2
20220123210004 66 288 0.0 0.0 0.00 0.00 0.00 25 1019.4
20220123205502 67 284 0.0 0.0 0.00 0.00 0.00 24 1019.4
20220123205003 67 261 0.0 0.0 0.00 0.00 0.00 24 1019.4
20220123204511 67 285 0.0 0.0 0.00 0.00 0.00 24 1019.7
20220123204005 67 182 0.0 0.0 0.00 0.00 0.00 26 1019.7
20220123203657 67 218 0.0 0.0 0.00 0.00 0.00 26 1019.7
20220123203123 66 202 0.0 0.0 0.00 0.00 0.00 26 1019.7
20220123202604 66 304 0.0 0.0 0.00 0.00 0.00 24 1019.7
20220123202059 66 252 0.0 0.0 0.00 0.00 0.00 27 1019.7
20220123201634 66 218 0.0 0.0 0.00 0.00 0.00 26 1019.9
20220123201059 66 224 0.0 0.0 0.00 0.00 0.00 26 1019.9
20220123200558 66 193 0.0 0.0 0.00 0.00 0.00 27 1019.9
20220123200129 66 211 0.0 0.0 0.00 0.00 0.00 27 1020.3
20220123195605 66 239 0.0 0.0 0.00 0.00 0.00 25 1020.3
20220123195059 66 235 0.0 0.0 0.00 0.00 0.00 27 1020.3
20220123194624 66 312 0.0 0.0 0.00 0.00 0.00 25 1020.4
20220123194056 65 291 0.0 0.0 0.00 0.00 0.00 26 1020.4
20220123193600 66 278 0.0 0.0 0.00 0.00 0.00 26 1020.4
20220123193339 66 251 0.0 0.0 0.00 0.00 0.00 25 1020.8
20220123192556 66 194 0.0 0.0 0.00 0.00 0.00 27 1020.8
20220123192055 66 209 0.0 0.0 0.00 0.00 0.00 27 1020.8
20220123191637 67 199 0.0 0.0 0.00 0.00 0.00 27 1020.9
20220123191055 67 220 0.0 0.0 0.00 0.00 0.00 28 1020.9
20220123190554 66 233 0.0 0.0 0.00 0.00 0.00 26 1020.9
20220123190147 66 173 0.0 0.0 0.00 0.00 0.00 25 1020.9
20220123185558 65 229 0.0 0.0 0.00 0.00 0.00 28 1020.9
20220123185056 65 254 0.0 0.0 0.00 0.00 0.00 26 1020.9
20220123184700 65 264 0.0 0.0 0.00 0.00 0.00 25 1021.2
20220123184057 65 159 0.0 0.0 0.00 0.00 0.00 28 1021.2
20220123183554 66 195 0.0 0.0 0.00 0.00 0.00 28 1021.2
20220123183208 65 194 0.0 0.0 0.00 0.00 0.00 29 1021.2
20220123182550 65 190 0.0 0.0 0.00 0.00 0.00 28 1021.2
20220123182119 66 210 0.0 0.0 0.00 0.00 0.00 28 1021.2
20220123181608 66 200 0.0 0.0 0.00 0.00 0.00 28 1021.2
20220123181118 65 249 0.0 0.0 0.00 0.00 0.00 26 1021.2
20220123180557 65 235 0.0 0.0 0.00 0.00 0.00 27 1021.2
20220123180110 65 238 0.0 0.0 0.00 0.00 0.00 26 1021.0
20220123175549 65 218 0.0 0.0 0.00 0.00 0.00 29 1021.0
20220123175058 65 217 0.0 0.0 0.00 0.00 0.00 31 1021.0
20220123174601 65 220 0.0 0.0 0.00 0.00 0.00 30 1021.2
20220123174046 64 218 0.0 0.0 0.00 0.00 0.00 30 1021.2
20220123173546 64 211 0.0 0.0 0.00 0.00 0.00 31 1021.2
20220123173055 64 198 0.0 0.0 0.00 0.00 0.00 31 1020.9
20220123172552 64 198 0.0 0.0 0.00 0.00 0.00 29 1020.9
20220123172045 64 199 0.0 0.0 0.00 0.00 0.00 30 1020.9
20220123171616 64 240 0.0 0.0 0.00 0.00 0.00 29 1020.9
20220123171109 64 240 0.0 0.0 0.00 0.00 0.00 26 1020.9
20220123170547 64 240 0.0 0.0 0.00 0.00 0.00 31 1020.9
20220123170115 64 240 0.0 0.0 0.00 0.00 0.00 33 1020.8
20220123165541 63 240 0.0 0.0 0.00 0.00 0.00 29 1020.8
20220123165055 63 329 0.0 0.0 0.00 0.00 0.00 33 1020.8
20220123164626 62 329 0.0 0.0 0.00 0.00 0.00 31 1020.8
20220123164038 62 329 0.0 0.0 0.00 0.00 0.00 31 1020.8
20220123163536 61 329 0.0 0.0 0.00 0.00 0.00 31 1020.8
20220123163208 61 329 0.0 0.0 0.00 0.00 0.00 31 1020.9
20220123162606 61 329 0.0 0.0 0.00 0.00 0.00 32 1020.9
20220123162034 60 329 0.0 0.0 0.00 0.00 0.00 32 1020.9
20220123161543 59 329 0.0 0.0 0.00 0.00 0.00 30 1020.6
20220123161030 59 329 0.0 0.0 0.00 0.00 0.00 30 1020.6
20220123160530 58 329 0.0 0.0 0.00 0.00 0.00 31 1020.6
20220123160029 58 329 0.0 0.0 0.00 0.00 0.00 31 1020.6
20220123155527 57 329 0.0 0.0 0.00 0.00 0.00 30 1020.6
20220123155032 57 329 0.0 0.0 0.00 0.00 0.00 30 1020.6
20220123154537 57 329 0.0 0.0 0.00 0.00 0.00 30 1020.5
20220123154049 57 329 0.0 0.0 0.00 0.00 0.00 30 1020.5
20220123153534 57 329 0.0 0.0 0.00 0.00 0.00 30 1020.5
20220123153143 57 329 0.0 0.0 0.00 0.00 0.00 30 1020.6
20220123152536 56 329 0.0 0.0 0.00 0.00 0.00 30 1020.6
20220123152035 55 328 0.0 0.0 0.00 0.00 0.00 31 1020.6
20220123151529 55 329 0.0 0.0 0.00 0.00 0.00 31 1020.5
20220123151026 55 329 0.0 0.0 0.00 0.00 0.00 32 1020.5
20220123150526 55 341 0.0 0.0 0.00 0.00 0.00 34 1020.5
20220123150030 54 340 0.0 0.0 0.00 0.00 0.00 33 1020.3
20220123145546 53 340 0.0 0.0 0.00 0.00 0.00 34 1020.3
20220123145024 53 11 0.0 0.0 0.00 0.00 0.00 36 1020.3
20220123144609 53 128 0.0 0.0 0.00 0.00 0.00 35 1020.1
20220123144024 53 128 0.0 0.0 0.00 0.00 0.00 35 1020.1
20220123143523 53 128 0.0 0.0 0.00 0.00 0.00 35 1020.1
20220123143138 53 128 0.0 0.0 0.00 0.00 0.00 35 1019.8
20220123142522 53 128 0.0 0.0 0.00 0.00 0.00 36 1019.8
20220123142039 53 128 0.0 0.0 0.00 0.00 0.00 35 1019.8
20220123141521 53 128 0.0 0.0 0.00 0.00 0.00 35 1019.6
20220123141021 53 128 0.0 0.0 0.00 0.00 0.00 34 1019.6
20220123140520 54 128 0.0 0.0 0.00 0.00 0.00 34 1019.6
20220123140030 54 128 0.0 0.0 0.00 0.00 0.00 33 1019.5
20220123135531 54 128 0.0 0.0 0.00 0.00 0.00 33 1019.5
20220123135019 55 128 0.0 0.0 0.00 0.00 0.00 32 1019.5
20220123134526 55 128 0.0 0.0 0.00 0.00 0.00 32 1019.4
20220123134017 55 128 0.0 0.0 0.00 0.00 0.00 31 1019.4
20220123133520 55 128 0.0 0.0 0.00 0.00 0.00 32 1019.4
20220123133030 55 128 0.0 0.0 0.00 0.00 0.00 31 1019.1
20220123132516 55 128 0.0 0.0 0.00 0.00 0.00 31 1019.1
20220123132039 55 142 0.0 0.0 0.00 0.00 0.00 31 1019.1
20220123131522 56 142 0.0 0.0 0.00 0.00 0.00 30 1019.0
20220123131022 56 142 0.0 0.0 0.00 0.00 0.00 30 1019.0
20220123130522 57 142 0.0 0.0 0.00 0.00 0.00 30 1019.0
20220123130101 57 142 0.0 0.0 0.00 0.00 0.00 29 1018.8
20220123125533 56 232 0.0 0.0 0.00 0.00 0.00 30 1018.8
20220123125021 55 199 0.0 0.0 0.00 0.00 0.00 31 1018.8
20220123124537 55 63 0.0 0.0 0.00 0.00 0.00 30 1018.8
20220123124018 56 298 0.0 0.0 0.00 0.00 0.00 29 1018.8
20220123123514 55 298 0.0 0.0 0.00 0.00 0.00 29 1018.8
20220123123054 55 298 0.0 0.0 0.00 0.00 0.00 29 1018.8
20220123122514 55 298 0.0 0.0 0.00 0.00 0.00 30 1018.8
20220123122014 55 296 0.0 0.0 0.00 0.00 0.00 29 1018.8
20220123121514 55 296 0.0 0.0 0.00 0.00 0.00 29 1018.7
20220123121013 56 296 0.0 0.0 0.00 0.00 0.00 30 1018.7
20220123120513 56 296 0.0 0.0 0.00 0.00 0.00 29 1018.7
20220123120016 56 296 0.0 0.0 0.00 0.00 0.00 30 1018.6
20220123115512 56 296 0.0 0.0 0.00 0.00 0.00 29 1018.6
20220123115012 56 296 0.0 0.0 0.00 0.00 0.00 29 1018.6
20220123114530 56 296 0.0 0.0 0.00 0.00 0.00 29 1018.7
20220123114011 57 296 0.0 0.0 0.00 0.00 0.00 30 1018.7
20220123113511 57 296 0.0 0.0 0.00 0.00 0.00 29 1018.7
20220123113027 57 296 0.0 0.0 0.00 0.00 0.00 29 1018.4
20220123112511 57 296 0.0 0.0 0.00 0.00 0.00 29 1018.4
20220123112011 57 296 0.0 0.0 0.00 0.00 0.00 29 1018.4
20220123111512 57 284 0.0 0.0 0.00 0.00 0.00 29 1018.3
20220123111025 58 284 0.0 0.0 0.00 0.00 0.00 28 1018.3
20220123110530 58 284 0.0 0.0 0.00 0.00 0.00 28 1018.3
20220123110010 58 284 0.0 0.0 0.00 0.00 0.00 28 1018.4
20220123105509 57 285 0.0 0.0 0.00 0.00 0.00 28 1018.4
20220123105008 57 284 0.0 0.0 0.00 0.00 0.00 28 1018.4
20220123104507 56 284 0.0 0.0 0.00 0.00 0.00 29 1018.4
20220123104004 56 284 0.0 0.0 0.00 0.00 0.00 30 1018.4
20220123103504 55 285 0.0 0.0 0.00 0.00 0.00 30 1018.4